When you browse on this site, cookies collect data to enhance your experience and personalize the content and advertising you see.
Visit our Privacy Policy to learn more. By continuing to use the site, you agree to this use of cookies and data.
  • în România
  • Lista ţărilor
  • Pe 7 zile
  • Temperatura apei
  • Meteo pe hartă
  • Widget-uri
  • user-avatar
    Intrare

    Meteo pe oră la Worcester

    Astăzi, 26 Ianuarie, Duminică

    Timp Temperatura Precipitaţii Vânt Presiune Umiditate
    00:00 +5°C° 0 mm 4 m/s 754 mmHg 93%
    01:00 +5°C° 0 mm 3 m/s 754 mmHg 94%
    02:00 +5°C° 0 mm 3 m/s 753 mmHg 95%
    03:00 +4°C° 0 mm 3 m/s 753 mmHg 96%
    04:00 +5°C° 0 mm 3 m/s 752 mmHg 95%
    05:00 +5°C° 0 mm 4 m/s 752 mmHg 94%
    06:00 +5°C° 0 mm 4 m/s 751 mmHg 93%
    07:00 +5°C° 0 mm 4 m/s 751 mmHg 93%
    08:00 +5°C° 0 mm 5 m/s 751 mmHg 92%
    09:00 +5°C° 0 mm 5 m/s 751 mmHg 91%
    10:00 +4°C° 0.4 mm 6 m/s 750 mmHg 91%
    11:00 +5°C° 0.4 mm 6 m/s 750 mmHg 91%
    12:00 +6°C° 0.4 mm 7 m/s 750 mmHg 91%
    13:00 +7°C° 0.6 mm 6 m/s 749 mmHg 91%
    14:00 +7°C° 0.6 mm 5 m/s 749 mmHg 90%
    15:00 +8°C° 0.6 mm 4 m/s 749 mmHg 90%
    16:00 +8°C° 0.1 mm 3 m/s 749 mmHg 91%
    17:00 +7°C° 0.1 mm 3 m/s 749 mmHg 91%
    18:00 +6°C° 0.1 mm 2 m/s 749 mmHg 92%
    19:00 +6°C° 0 mm 2 m/s 749 mmHg 92%
    20:00 +5°C° 0 mm 2 m/s 749 mmHg 92%
    21:00 +4°C° 0 mm 2 m/s 749 mmHg 92%
    22:00 +4°C° 0 mm 2 m/s 749 mmHg 93%
    23:00 +3°C° 0 mm 3 m/s 748 mmHg 93%

    Mâine, 27 Ianuarie, Luni

    Timp Temperatura Precipitaţii Vânt Presiune Umiditate
    00:00 +3°C° 0 mm 3 m/s 748 mmHg 93%
    01:00 +3°C° 0 mm 4 m/s 747 mmHg 93%
    02:00 +2°C° 0 mm 5 m/s 747 mmHg 93%
    03:00 +3°C° 0 mm 5 m/s 747 mmHg 92%
    04:00 +3°C° 0 mm 5 m/s 746 mmHg 92%
    05:00 +3°C° 0 mm 5 m/s 746 mmHg 92%
    06:00 +3°C° 0 mm 5 m/s 745 mmHg 91%
    07:00 +3°C° 0 mm 5 m/s 745 mmHg 91%
    08:00 +3°C° 0 mm 5 m/s 745 mmHg 90%
    09:00 +3°C° 0 mm 5 m/s 745 mmHg 89%
    10:00 +5°C° 0.1 mm 5 m/s 745 mmHg 85%
    11:00 +4°C° 0.1 mm 6 m/s 745 mmHg 80%
    12:00 +5°C° 0.1 mm 6 m/s 744 mmHg 76%
    13:00 +6°C° 0.2 mm 5 m/s 744 mmHg 77%
    14:00 +5°C° 0.2 mm 5 m/s 743 mmHg 79%
    15:00 +5°C° 0.2 mm 4 m/s 743 mmHg 80%
    16:00 +4°C° 0 mm 4 m/s 742 mmHg 83%
    17:00 +3°C° 0 mm 3 m/s 742 mmHg 87%
    18:00 +2°C° 0 mm 3 m/s 741 mmHg 90%
    19:00 +2°C° 0 mm 3 m/s 741 mmHg 90%
    20:00 +2°C° 0 mm 3 m/s 740 mmHg 91%
    21:00 +2°C° 0 mm 3 m/s 739 mmHg 91%
    22:00 +2°C° 0.1 mm 3 m/s 739 mmHg 92%
    23:00 +2°C° 0.1 mm 3 m/s 738 mmHg 93%

    Poimâine, 28 Ianuarie, Marţi

    Timp Temperatura Precipitaţii Vânt Presiune Umiditate
    00:00 +2°C° 0.1 mm 3 m/s 737 mmHg 93%
    01:00 +1°C° 0 mm 4 m/s 738 mmHg 90%
    02:00 0°C° 0 mm 5 m/s 738 mmHg 88%
    03:00 -1°C° 0 mm 6 m/s 738 mmHg 85%
    04:00 0°C° 0 mm 5 m/s 739 mmHg 83%
    05:00 -1°C° 0 mm 5 m/s 740 mmHg 81%
    06:00 -1°C° 0 mm 5 m/s 740 mmHg 80%
    07:00 -1°C° 0 mm 5 m/s 741 mmHg 81%
    08:00 0°C° 0 mm 5 m/s 741 mmHg 81%
    09:00 0°C° 0 mm 5 m/s 741 mmHg 82%
    10:00 +1°C° 0 mm 6 m/s 742 mmHg 78%
    11:00 +3°C° 0 mm 6 m/s 742 mmHg 73%
    12:00 +4°C° 0 mm 7 m/s 742 mmHg 68%
    13:00 +3°C° 0.2 mm 7 m/s 742 mmHg 69%
    14:00 +3°C° 0.2 mm 7 m/s 742 mmHg 70%
    15:00 +3°C° 0.2 mm 7 m/s 742 mmHg 71%
    16:00 +2°C° 0 mm 6 m/s 743 mmHg 73%
    17:00 +1°C° 0 mm 6 m/s 743 mmHg 74%
    18:00 -1°C° 0 mm 6 m/s 744 mmHg 76%
    19:00 0°C° 0 mm 5 m/s 744 mmHg 76%
    20:00 -1°C° 0 mm 5 m/s 745 mmHg 77%
    21:00 -1°C° 0 mm 5 m/s 746 mmHg 77%
    22:00 -1°C° 0 mm 5 m/s 746 mmHg 77%
    23:00 -1°C° 0 mm 5 m/s 747 mmHg 78%

    29 Ianuarie, Miercuri

    Timp Temperatura Precipitaţii Vânt Presiune Umiditate
    00:00 -1°C° 0 mm 5 m/s 747 mmHg 78%
    01:00 -1°C° 0 mm 4 m/s 748 mmHg 79%
    02:00 -1°C° 0 mm 4 m/s 748 mmHg 79%
    03:00 -1°C° 0 mm 4 m/s 749 mmHg 79%
    04:00 -1°C° 0 mm 4 m/s 749 mmHg 82%
    05:00 -1°C° 0 mm 4 m/s 750 mmHg 85%
    06:00 -1°C° 0 mm 4 m/s 750 mmHg 88%
    07:00 -1°C° 0 mm 4 m/s 750 mmHg 86%
    08:00 0°C° 0 mm 5 m/s 751 mmHg 84%
    09:00 0°C° 0 mm 5 m/s 751 mmHg 82%
    10:00 +1°C° 0 mm 5 m/s 752 mmHg 77%
    11:00 +3°C° 0 mm 6 m/s 752 mmHg 72%
    12:00 +4°C° 0 mm 6 m/s 753 mmHg 67%
    13:00 +4°C° 0 mm 6 m/s 753 mmHg 68%
    14:00 +5°C° 0 mm 5 m/s 753 mmHg 70%
    15:00 +5°C° 0 mm 4 m/s 753 mmHg 71%
    16:00 +4°C° 0 mm 4 m/s 754 mmHg 76%
    17:00 +3°C° 0 mm 3 m/s 754 mmHg 82%
    18:00 +2°C° 0 mm 2 m/s 754 mmHg 87%
    19:00 +2°C° 0 mm 2 m/s 755 mmHg 88%
    20:00 +2°C° 0 mm 2 m/s 755 mmHg 89%
    21:00 +2°C° 0 mm 2 m/s 755 mmHg 90%
    22:00 +2°C° 0 mm 2 m/s 755 mmHg 91%
    23:00 +2°C° 0 mm 2 m/s 755 mmHg 91%

    30 Ianuarie, Joi

    Timp Temperatura Precipitaţii Vânt Presiune Umiditate
    00:00 +2°C° 0 mm 2 m/s 755 mmHg 92%
    01:00 +2°C° 0 mm 2 m/s 755 mmHg 92%
    02:00 +2°C° 0 mm 2 m/s 755 mmHg 93%
    03:00 +2°C° 0 mm 2 m/s 754 mmHg 94%
    04:00 +2°C° 0 mm 2 m/s 754 mmHg 94%
    05:00 +2°C° 0 mm 2 m/s 754 mmHg 94%
    06:00 +2°C° 0 mm 2 m/s 753 mmHg 94%
    07:00 +1°C° 0 mm 3 m/s 753 mmHg 94%
    08:00 +1°C° 0 mm 3 m/s 753 mmHg 94%
    09:00 +2°C° 0 mm 3 m/s 753 mmHg 94%
    10:00 +3°C° 0 mm 4 m/s 752 mmHg 90%
    11:00 +5°C° 0 mm 5 m/s 752 mmHg 86%
    12:00 +5°C° 0 mm 6 m/s 751 mmHg 82%
    13:00 +5°C° 0 mm 6 m/s 751 mmHg 84%
    14:00 +6°C° 0 mm 5 m/s 750 mmHg 86%
    15:00 +6°C° 0 mm 5 m/s 749 mmHg 88%
    16:00 +5°C° 0 mm 4 m/s 749 mmHg 91%
    17:00 +5°C° 0 mm 3 m/s 749 mmHg 93%
    18:00 +6°C° 0 mm 2 m/s 749 mmHg 96%
    19:00 +6°C° 0 mm 2 m/s 749 mmHg 96%
    20:00 +6°C° 0 mm 2 m/s 749 mmHg 97%
    21:00 +7°C° 0 mm 2 m/s 749 mmHg 98%
    22:00 +7°C° 0 mm 2 m/s 749 mmHg 98%
    23:00 +8°C° 0 mm 3 m/s 749 mmHg 98%

    31 Ianuarie, Vineri

    Timp Temperatura Precipitaţii Vânt Presiune Umiditate
    00:00 +8°C° 0 mm 3 m/s 749 mmHg 98%
    01:00 +8°C° 0 mm 3 m/s 749 mmHg 97%
    02:00 +8°C° 0 mm 4 m/s 748 mmHg 97%
    03:00 +9°C° 0 mm 5 m/s 748 mmHg 97%
    04:00 +10°C° 0 mm 4 m/s 748 mmHg 96%
    05:00 +10°C° 0 mm 4 m/s 748 mmHg 95%
    06:00 +10°C° 0 mm 4 m/s 748 mmHg 95%
    07:00 +9°C° 0 mm 5 m/s 748 mmHg 94%
    08:00 +9°C° 0 mm 5 m/s 748 mmHg 93%
    09:00 +9°C° 0 mm 6 m/s 748 mmHg 92%
    10:00 +9°C° 0.1 mm 6 m/s 748 mmHg 91%
    11:00 +10°C° 0.1 mm 6 m/s 748 mmHg 91%
    12:00 +10°C° 0.1 mm 7 m/s 748 mmHg 91%
    13:00 +10°C° 0.3 mm 6 m/s 749 mmHg 88%
    14:00 +10°C° 0.3 mm 6 m/s 749 mmHg 85%
    15:00 +10°C° 0.3 mm 5 m/s 749 mmHg 81%
    16:00 +9°C° 0 mm 5 m/s 750 mmHg 83%
    17:00 +7°C° 0 mm 4 m/s 750 mmHg 85%
    18:00 +5°C° 0 mm 4 m/s 751 mmHg 87%
    19:00 +5°C° 0 mm 4 m/s 752 mmHg 88%
    20:00 +5°C° 0 mm 4 m/s 752 mmHg 89%
    21:00 +4°C° 0 mm 4 m/s 753 mmHg 89%
    22:00 +4°C° 0 mm 4 m/s 753 mmHg 90%
    23:00 +4°C° 0 mm 4 m/s 754 mmHg 90%
    Arată mai mult